Voltar ao catálogo

LEASAT 4 PKM

AtivoHEO
NORAD 16001·ROCKET BODY·🇺🇸 United States

Lançado Aug 27, 1985 de Cape Canaveral Space Force Station

Loading…

Próximas Passagens (próximas 24 horas)

TLE

AtualizadoSource: Space-Track

Época: Sep 13, 2026, 17:12 UTC

1 16001U 85076F   26256.71674463  .00001182  00000-0  56925-3 0  9995
2 16001  27.4044  18.3510 4992150  94.1468 321.9702  5.54124485797130

Acompanhe LEASAT 4 PKM em tempo real com AllMySat

Download on the App Store